GW2751 Weather Reports


time (UTC)temp
F
wind
direction
speed
knots
gust
knots
rain 1hr
in
rain 24hr
in
rain mn
in
humidity
%
barometer
mb
20260510153048 65 239 6.1 13.9 0.00 0.00 0.00 61 1018.3
20260510151627 64 226 10.4 17.4 0.00 0.00 0.00 60 1018.5
20260510150042 64 278 9.6 13.9 0.00 0.00 0.00 62 1018.5
20260510144537 62 232 8.7 14.8 0.00 0.00 0.00 62 1018.2
20260510143040 62 245 9.6 16.5 0.00 0.00 0.00 63 1018.2
20260510141540 62 240 9.6 18.2 0.00 0.00 0.00 64 1018.1
20260510140037 61 222 10.4 17.4 0.00 0.00 0.00 66 1018.0
20260510134537 60 217 8.7 17.4 0.00 0.00 0.00 70 1018.0
20260510133036 59 232 8.7 14.8 0.00 0.00 0.00 71 1018.0
20260510131538 59 239 7.8 13.0 0.00 0.00 0.00 73 1018.1
20260510124548 56 224 6.1 12.2 0.00 0.00 0.00 81 1018.0
20260510123038 55 230 7.8 11.3 0.00 0.00 0.00 86 1017.9
20260510121539 54 254 6.1 11.3 0.00 0.00 0.00 89 1017.9
20260510120043 52 224 4.3 7.0 0.00 0.00 0.00 91 1017.4
20260510114538 51 237 3.5 7.8 0.00 0.00 0.00 92 1017.4
20260510113040 49 185 0.9 2.6 0.00 0.00 0.00 92 1017.1
20260510111534 48 0 0.0 2.6 0.00 0.00 0.00 92 1017.0
20260510110041 47 231 1.7 4.3 0.00 0.00 0.00 91 1016.9
20260510104548 46 0 0.9 3.5 0.00 0.00 0.00 91 1016.6
20260510103040 46 233 1.7 4.3 0.00 0.00 0.00 91 1016.5
20260510101900 47 269 0.0 3.5 0.00 0.00 0.00 91 1016.2
20260510101540 47 269 0.0 3.5 0.00 0.00 0.00 91 1016.2
20260510100037 47 214 0.9 4.3 0.00 0.00 0.00 91 1016.1
20260510094536 47 208 1.7 4.3 0.00 0.00 0.00 91 1016.1
20260510093037 46 218 1.7 4.3 0.00 0.00 0.00 91 1016.0
20260510091542 46 220 2.6 5.2 0.00 0.00 0.00 91 1015.7
20260510090045 46 226 1.7 4.3 0.00 0.00 0.00 91 1015.5
20260510084539 46 239 1.7 5.2 0.00 0.00 0.00 90 1015.4
20260510083052 46 245 1.7 4.3 0.00 0.00 0.00 90 1015.4
20260510081538 46 214 2.6 4.3 0.00 0.00 0.00 90 1015.3
20260510080429 47 222 0.9 4.3 0.00 0.00 0.00 90 1015.2
20260510074535 47 212 2.6 4.3 0.00 0.00 0.00 90 1015.0
20260510073107 47 240 1.7 3.5 0.00 0.00 0.00 90 1015.0
20260510071911 47 241 1.7 3.5 0.00 0.00 0.00 90 1015.0
20260510070039 47 256 2.6 4.3 0.00 0.00 0.00 90 1015.0
20260510064540 47 247 2.6 4.3 0.00 0.00 0.00 89 1015.0
20260510063045 48 257 2.6 6.1 0.00 0.00 0.00 89 1015.0
20260510061732 47 232 2.6 4.3 0.00 0.00 0.00 89 1014.9
20260510060042 46 258 1.7 3.5 0.00 0.00 0.00 88 1014.8
20260510054938 46 220 0.0 3.5 0.00 0.00 0.00 88 1014.9
20260510053038 46 250 1.7 2.6 0.00 0.00 0.00 88 1014.9
20260510051614 47 0 0.0 2.6 0.00 0.00 0.00 87 1015.1
20260510043109 48 247 2.6 4.3 0.00 0.00 0.00 86 1015.0
20260510041737 48 245 1.7 2.6 0.00 0.00 0.00 85 1015.0
20260510040142 48 241 1.7 3.5 0.00 0.00 0.00 85 1015.0
20260510034610 49 256 0.9 3.5 0.00 0.00 0.00 84 1014.7
20260510033045 49 254 2.6 5.2 0.00 0.00 0.00 84 1014.7
20260510023037 50 251 1.7 3.5 0.00 0.00 0.00 79 1014.8
20260510021537 50 235 2.6 4.3 0.00 0.00 0.00 77 1014.5
20260510020045 51 231 0.0 2.6 0.00 0.00 0.00 76 1014.4
20260510014543 52 221 1.7 3.5 0.00 0.00 0.00 76 1014.0
20260510013040 53 222 1.7 2.6 0.00 0.00 0.00 74 1013.6
20260510011537 54 216 1.7 3.5 0.00 0.00 0.00 72 1013.5
20260510010039 55 0 0.0 2.6 0.00 0.00 0.00 68 1013.2
20260510004554 57 222 0.0 0.9 0.00 0.00 0.00 66 1013.2
20260510000038 60 233 0.9 7.0 0.00 0.00 0.00 61 1013.0
20260509234543 61 224 2.6 8.7 0.00 0.00 0.00 60 1012.8
20260509233038 61 211 3.5 8.7 0.00 0.00 0.00 59 1012.8
20260509231537 62 254 4.3 12.2 0.00 0.00 0.00 59 1012.6
20260509230052 62 256 6.1 13.0 0.00 0.00 0.00 58 1012.5
20260509224545 62 245 6.1 12.2 0.00 0.00 0.00 57 1012.5
20260509223047 62 267 7.0 12.2 0.00 0.00 0.00 57 1012.5
20260509193132 62 247 6.1 14.8 0.00 0.00 0.00 54 1011.8
20260509191539 62 239 7.8 14.8 0.00 0.00 0.00 54 1011.8
20260509190215 61 207 7.0 16.5 0.00 0.00 0.00 53 1011.8
20260509184545 62 251 6.1 11.3 0.00 0.00 0.00 53 1011.8
20260509183039 62 233 7.0 13.0 0.00 0.00 0.00 49 1011.8
20260509181545 63 205 7.8 14.8 0.00 0.00 0.00 52 1011.8
20260509171549 61 274 5.2 9.6 0.00 0.00 0.00 59 1012.0
20260509170048 60 193 7.8 13.0 0.00 0.00 0.00 56 1012.1
20260509164536 60 237 8.7 13.9 0.00 0.00 0.00 58 1012.2
20260509163043 59 249 7.0 16.5 0.00 0.00 0.00 61 1012.1
20260509161544 60 242 5.2 20.0 0.00 0.00 0.00 59 1012.0
20260509160037 60 211 7.0 13.9 0.00 0.00 0.00 64 1012.3
20260509154538 58 215 3.5 11.3 0.00 0.00 0.00 66 1011.9